Waarnemingen

Advertentie
Mijn weer
Beauvechain, België (6458): temperatuur & dauwpunt: 19.04.2018 02:00:00 - 25.04.2018 02:00:00 (CEST)Beauvechain, België (6458): windsnelheid & windstoten: 19.04.2018 02:00:00 - 25.04.2018 02:00:00 (CEST)Beauvechain, België (6458): windrichting: 19.04.2018 02:00:00 - 25.04.2018 02:00:00 (CEST)Beauvechain, België (6458): luchtdruk: 19.04.2018 02:00:00 - 25.04.2018 02:00:00 (CEST)Beauvechain, België (6458): zicht: 19.04.2018 02:00:00 - 25.04.2018 02:00:00 (CEST)
Datum & Tijd tt [°C] td [°C] ff [km/u] ff [kn] fx [km/u] fx [kn] dd ppp [hPa] vv [km]
25.04.2018 02:00:00 14,0 10,0 18 10 - - WZW 1010,7 20
25.04.2018 01:00:00 15,1 9,3 18 10 25 14 ZZW 1010,8 20
25.04.2018 00:00:00 15,3 9,5 14 8 25 14 ZZW 1011,5 25
24.04.2018 23:00:00 15,6 9,3 14 8 - - ZW 1012,5 25
24.04.2018 22:00:00 15,5 9,9 11 6 22 12 ZW 1013,0 25
24.04.2018 21:00:00 15,8 9,6 14 8 29 16 ZW 1013,3 25
24.04.2018 20:00:00 16,0 9,5 22 12 - - ZW 1013,7 25
24.04.2018 19:00:00 15,8 8,9 18 10 32 18 ZW 1014,3 25
24.04.2018 18:00:00 15,8 8,6 25 14 36 19 ZW 1015,2 25
24.04.2018 17:00:00 15,1 8,2 25 14 - - ZW 1015,7 20
24.04.2018 16:00:00 14,3 7,9 18 10 29 16 WZW 1016,8 20
24.04.2018 15:00:00 13,6 7,7 18 10 32 18 WZW 1017,7 20
24.04.2018 14:00:00 13,1 7,8 22 12 - - WZW 1018,1 20
24.04.2018 13:00:00 13,1 8,3 22 12 36 19 WZW 1018,5 20
24.04.2018 12:00:00 12,4 8,0 22 12 32 18 ZW 1018,6 20
24.04.2018 11:00:00 10,6 6,9 18 10 - - ZW 1018,6 20
24.04.2018 10:00:00 10,0 6,3 22 12 29 16 ZW 1018,3 15
24.04.2018 09:00:00 9,7 6,2 18 10 29 16 ZW 1018,0 15
24.04.2018 08:00:00 9,1 5,0 22 12 - - ZW 1018,1 20
24.04.2018 07:00:00 8,6 4,7 22 12 32 18 ZW 1017,6 20
24.04.2018 06:00:00 8,2 4,5 22 12 29 16 ZW 1017,3 20
24.04.2018 05:00:00 7,9 4,5 18 10 - - ZW 1017,8 20
24.04.2018 04:00:00 7,8 4,4 22 12 25 14 ZW 1018,0 20
24.04.2018 03:00:00 7,8 4,3 14 8 22 12 ZZW 1018,5 20
24.04.2018 02:00:00 8,2 4,3 14 8 - - ZW 1018,7 20
24.04.2018 01:00:00 8,7 4,4 14 8 25 14 WZW 1019,1 20
24.04.2018 00:00:00 9,3 4,4 14 8 29 16 WZW 1019,1 20
23.04.2018 23:00:00 10,4 4,6 18 10 - - WZW 1018,7 20
23.04.2018 22:00:00 11,6 4,9 11 6 25 14 WZW 1018,5 20
23.04.2018 21:00:00 12,3 5,6 14 8 29 16 W 1018,1 20
23.04.2018 20:00:00 14,1 5,9 18 10 - - WZW 1017,5 20
23.04.2018 19:00:00 15,4 6,0 18 10 32 18 WZW 1017,6 20
23.04.2018 18:00:00 15,9 6,3 14 8 32 18 W 1017,5 20
23.04.2018 17:00:00 16,4 6,8 18 10 - - W 1017,2 20
23.04.2018 16:00:00 16,2 6,5 22 12 32 18 W 1017,3 20
23.04.2018 15:00:00 17,0 5,3 18 10 36 19 WZW 1017,1 20
23.04.2018 14:00:00 16,8 7,5 14 8 - - W 1017,2 20
23.04.2018 13:00:00 15,3 7,2 18 10 29 16 W 1017,5 18
23.04.2018 12:00:00 14,2 7,5 22 12 29 16 W 1017,6 18
23.04.2018 11:00:00 14,1 8,7 22 12 - - WZW 1017,0 18
23.04.2018 10:00:00 13,6 8,8 14 8 18 10 W 1016,5 18
23.04.2018 09:00:00 12,4 8,7 11 6 22 12 WZW 1016,1 17
23.04.2018 08:00:00 11,4 7,6 11 6 - - W 1015,8 15
23.04.2018 07:00:00 12,1 6,6 11 6 22 12 WZW 1015,2 12
23.04.2018 06:00:00 12,9 6,8 11 6 25 14 WZW 1014,7 12
23.04.2018 05:00:00 13,0 7,1 18 10 - - ZW 1014,2 20
23.04.2018 04:00:00 14,3 9,1 14 8 25 14 WZW 1013,8 20
23.04.2018 03:00:00 15,1 10,1 14 8 18 10 WZW 1013,3 20
23.04.2018 02:00:00 15,6 10,3 11 6 - - ZW 1013,2 20
23.04.2018 01:00:00 16,7 10,4 14 8 22 12 ZZW 1013,2 20
23.04.2018 00:00:00 17,3 10,3 7 4 22 12 ZW 1012,2 20
22.04.2018 23:00:00 18,3 10,8 11 6 - - W 1012,3 20
22.04.2018 22:00:00 19,7 9,9 7 4 14 8 ZW 1011,2 20
22.04.2018 21:00:00 21,2 9,5 11 6 32 18 ZW 1010,7 20
22.04.2018 20:00:00 23,3 8,4 18 10 - - ZW 1010,2 20
22.04.2018 19:00:00 24,3 9,0 29 16 43 23 WZW 1010,0 20
22.04.2018 18:00:00 25,1 10,3 29 16 47 25 ZW 1009,8 18
22.04.2018 17:00:00 24,3 12,2 29 16 - - ZW 1009,8 20
22.04.2018 16:00:00 25,6 10,6 29 16 40 21 ZW 1009,7 20
22.04.2018 15:00:00 26,4 12,2 22 12 36 19 ZZW 1010,2 20
22.04.2018 14:00:00 25,0 12,0 18 10 - - Z 1010,7 20
22.04.2018 13:00:00 23,5 12,2 18 10 29 16 Z 1011,2 8
22.04.2018 12:00:00 24,3 8,8 14 8 22 12 Z 1011,2 19
22.04.2018 11:00:00 18,5 11,1 4 2 - - N 1011,7 10
22.04.2018 10:00:00 17,3 12,0 11 6 14 8 Z 1013,3 9
22.04.2018 09:00:00 16,3 11,4 11 6 14 8 ZW 1013,6 8
22.04.2018 08:00:00 13,1 9,9 7 4 - - ZW 1013,8 8
22.04.2018 07:00:00 11,1 8,4 4 2 4 2 N 1013,8 9
22.04.2018 06:00:00 13,3 9,4 4 2 7 4 N 1014,0 10
22.04.2018 05:00:00 13,7 9,2 4 2 - - N 1014,6 13
22.04.2018 04:00:00 14,0 9,2 4 2 7 4 N 1015,2 16
22.04.2018 03:00:00 15,3 9,5 4 2 7 4 N 1015,6 17
22.04.2018 02:00:00 15,7 9,2 4 2 - - N 1016,2 18
22.04.2018 01:00:00 16,9 9,2 7 4 14 8 O 1016,6 19
22.04.2018 00:00:00 17,1 9,4 7 4 11 6 O 1017,3 20
21.04.2018 23:00:00 17,7 9,5 7 4 - - ONO 1017,8 19
21.04.2018 22:00:00 18,5 9,8 7 4 11 6 N 1018,1 18
21.04.2018 21:00:00 19,7 8,9 7 4 11 6 NO 1018,0 19
21.04.2018 20:00:00 22,1 8,4 7 4 - - N 1018,0 20
21.04.2018 19:00:00 23,3 7,6 7 4 18 10 NO 1018,2 19
21.04.2018 18:00:00 23,4 9,1 11 6 18 10 NNO 1018,7 17
21.04.2018 17:00:00 23,3 10,1 11 6 - - NO 1019,3 13
21.04.2018 16:00:00 22,4 11,2 7 4 14 8 NO 1020,2 12
21.04.2018 15:00:00 22,1 11,6 7 4 22 12 NO 1020,7 9
21.04.2018 14:00:00 21,0 12,2 9 5 - - NO 1021,3 7
21.04.2018 13:00:00 19,5 11,5 7 4 14 8 NNO 1022,1 6
21.04.2018 12:00:00 18,6 11,6 7 4 11 6 NO 1022,6 7
21.04.2018 11:00:00 16,5 11,7 4 2 - - N 1022,8 4,1
21.04.2018 10:00:00 14,2 10,8 7 4 11 6 NO 1023,0 2,7
21.04.2018 09:00:00 12,0 9,5 4 2 7 4 N 1023,1 2,4
21.04.2018 08:00:00 10,8 9,2 4 2 - - N 1023,2 2,0
21.04.2018 07:00:00 10,1 9,0 4 2 4 2 N 1022,7 1,4
21.04.2018 06:00:00 10,6 9,2 4 2 7 4 N 1022,2 1,8
21.04.2018 05:00:00 11,5 9,4 4 2 - - N 1022,3 2,4
21.04.2018 04:00:00 12,3 9,5 4 2 7 4 N 1022,3 3,4
21.04.2018 03:00:00 13,8 9,7 4 2 7 4 N 1022,7 4,8
21.04.2018 02:00:00 14,1 10,0 4 2 - - N 1023,0 6
21.04.2018 01:00:00 15,6 10,2 4 2 7 4 N 1022,8 11
21.04.2018 00:00:00 16,2 9,5 4 2 7 4 N 1022,7 19
20.04.2018 23:00:00 18,0 8,3 4 2 - - N 1022,7 20
20.04.2018 22:00:00 19,6 5,1 4 2 7 4 N 1022,6 20
20.04.2018 21:00:00 21,2 5,6 4 2 14 8 N 1022,0 20
20.04.2018 20:00:00 23,1 8,4 7 4 - - NNW 1021,6 20
20.04.2018 19:00:00 24,6 9,8 11 6 22 12 NNW 1021,6 20
20.04.2018 18:00:00 25,9 10,7 11 6 22 12 W 1021,5 20
20.04.2018 17:00:00 25,9 10,0 14 8 - - WNW 1021,8 20
20.04.2018 16:00:00 26,8 11,2 14 8 25 14 W 1022,2 20
20.04.2018 15:00:00 26,1 11,7 11 6 29 16 WZW 1023,0 20
20.04.2018 14:00:00 26,3 11,2 11 6 - - WZW 1022,8 18
20.04.2018 13:00:00 25,9 12,4 11 6 18 10 WZW 1023,2 18
20.04.2018 12:00:00 24,9 13,0 7 4 14 8 W 1023,5 20
20.04.2018 11:00:00 23,6 11,9 7 4 - - ZW 1023,5 20
20.04.2018 10:00:00 21,5 12,1 11 6 14 8 ZW 1023,2 20
20.04.2018 09:00:00 19,1 10,7 11 6 14 8 ZZW 1023,5 20
20.04.2018 08:00:00 17,6 9,8 7 4 - - ZW 1023,6 20
20.04.2018 07:00:00 17,6 9,0 7 4 11 6 Z 1023,3 20
20.04.2018 06:00:00 17,6 8,9 4 2 4 2 N 1023,3 20
20.04.2018 05:00:00 17,5 8,8 4 2 - - N 1023,7 20
20.04.2018 04:00:00 17,9 8,5 4 2 4 2 N 1023,8 20
20.04.2018 03:00:00 18,7 8,5 4 2 4 2 N 1024,0 20
20.04.2018 02:00:00 18,8 8,8 4 2 - - N 1024,2 20
20.04.2018 01:00:00 19,2 8,9 4 2 7 4 N 1024,2 20
20.04.2018 00:00:00 20,0 9,0 4 2 7 4 N 1024,2 20
19.04.2018 23:00:00 21,1 9,0 7 4 - - N 1024,4 20
19.04.2018 22:00:00 21,6 9,8 7 4 11 6 ZW 1024,5 20
19.04.2018 21:00:00 23,4 9,2 4 2 11 6 N 1024,0 20
19.04.2018 20:00:00 25,3 8,7 7 4 - - ZW 1023,6 20
19.04.2018 19:00:00 27,3 6,8 7 4 18 10 Z 1023,5 14
19.04.2018 18:00:00 27,8 6,8 9 5 18 10 Z 1023,6 3,2
19.04.2018 17:00:00 27,7 6,0 11 6 - - Z 1023,8 20
19.04.2018 16:00:00 27,3 5,0 11 6 25 14 OZO 1024,2 20
19.04.2018 15:00:00 27,4 7,6 11 6 25 14 ZO 1024,9 20
19.04.2018 14:00:00 26,0 9,2 4 2 - - N 1025,2 20
19.04.2018 13:00:00 24,7 7,7 11 6 22 12 ZZO 1025,7 20
19.04.2018 12:00:00 23,3 7,6 14 8 22 12 ZZO 1026,2 20
19.04.2018 11:00:00 22,0 7,9 14 8 - - ZO 1026,5 20
19.04.2018 10:00:00 20,3 8,0 11 6 18 10 ZO 1026,5 20
19.04.2018 09:00:00 17,8 7,8 7 4 22 12 ZO 1026,7 20
19.04.2018 08:00:00 16,3 5,8 11 6 - - ZZO 1026,5 20
19.04.2018 07:00:00 14,2 5,4 4 2 7 4 N 1026,4 20
19.04.2018 06:00:00 12,7 5,8 4 2 7 4 N 1026,7 20
19.04.2018 05:00:00 13,4 6,1 4 2 - - N 1027,0 20
19.04.2018 04:00:00 15,0 6,1 4 2 11 6 N 1027,2 20
19.04.2018 03:00:00 15,7 6,4 7 4 11 6 O 1027,5 20
19.04.2018 02:00:00 15,3 5,8 4 2 - - N 1027,9 20

tt = temperatuur
td = dauwpunt
ff = windsnelheid
fx = windstoten
dd = windrichting
ppp = luchtdruk
vv = zicht

Weerstations in de omgeving